"Pseudo-MPEC" for ST25K39

Created 2025 Dec 5 23:35:12 UT using Find_Orb

Click here for an explanation of pseudo-MPECs

 
 Astrometry: 
     ST25K39* C2025 11 24.20282802 50 22.691+22 41 56.76   ~BO5o 19.53GVNEOCPU68
     ST25K39  C2025 11 24.20616902 50 36.923+22 44 38.42   ~BO5o 19.53GVNEOCPU68
     ST25K39  C2025 11 24.22195602 51 44.200+22 57 15.14   ~BO65 19.87GVNEOCPU74
     ST25K39  C2025 11 24.22436102 51 54.377+22 59 11.55   ~BO65 19.87GVNEOCPU74
     ST25K39  C2025 11 24.28267102 55 58.204+23 44 13.25   ~BO75 19.77GVNEOCPU74
     ST25K39  C2025 11 24.28597902 56 11.855+23 46 40.83   ~BO75 19.77GVNEOCPU74

Station data:
(U68) JPL SynTrack Robotic Telescope, Auberry  (N37.070387 W119.412990)
   US/California.  Observers N. Saini, C. Zhai, R. Trahan, M. Zhan, M. Shao.
   0.28-m f/2.2 Schmidt + CCD.
(U74) JPL SynTrack Robotic Telescope 2, Auberry  (N37.070341 W119.412800)
   US/California.  Observers N. Saini, C. Zhai, R. Trahan, M. Zhan, M. Shao.
   0.36-m f/2.2 Schmidt.

Orbital elements:  ST25K39
   Perihelion 2025 Oct 31.246895 +/- 1.36 TT =  5:55:31.7 (JD 2460979.746895)
Epoch 2025 Nov 24.0 TT = JDT 2461003.5   Earth MOID: 0.0038   Ma: 0.0705
M   8.153781987 +/- 4.7             (J2000 ecliptic)             AutoNEOCP
n   0.343272260 +/- 0.21            Peri.  330.297865 +/- 3.7
a   2.020118794 +/- 0.824           Node    60.870671 +/- 0.07
e   0.52927642 +/- 0.201            Incl.    5.186595 +/- 1.7
P   2.87121                H 28.80  G  0.15   U 11.7
q 0.950917548 +/- 0.0193    Q 3.089320040 +/- 1.67
From 6 observations 2025 Nov. 24 (2.0 hr); mean residual 0".52
Residuals in arcseconds: 
251124 U68  .39+  .11+    251124 U74  .21+  1.1-    251124 U74  .05+  .73+    
251124 U68  .51-  .04+    251124 U74  .04-  .80+    251124 U74  .06-  .66-    

Ephemerides (geocentric):
Date (UTC) HH   RA             Dec           delta  r     elong  mag " sig PA
---- --------  ------------   ------------  ------ ------ -----  --- --------
2025 12 06 00  06 11 00.373   +41 47 59.18  .07381 1.0523 154.2 24.4 5577  93
2025 12 06 01  06 11 06.897   +41 48 03.65  .07404 1.0525 154.2 24.4 5580  93
2025 12 06 02  06 11 13.373   +41 48 07.99  .07428 1.0527 154.2 24.4 5583  93
2025 12 06 03  06 11 19.801   +41 48 12.20  .07452 1.0530 154.3 24.4 5586  93
2025 12 06 04  06 11 26.180   +41 48 16.29  .07475 1.0532 154.3 24.4 5589  94
2025 12 06 05  06 11 32.512   +41 48 20.25  .07499 1.0534 154.3 24.4 5592  94
2025 12 06 06  06 11 38.797   +41 48 24.10  .07523 1.0536 154.3 24.4 5595  94
2025 12 06 07  06 11 45.034   +41 48 27.82  .07546 1.0538 154.3 24.4 5598  94
2025 12 06 08  06 11 51.226   +41 48 31.42  .07570 1.0541 154.3 24.4 5601  94
2025 12 06 09  06 11 57.371   +41 48 34.91  .07594 1.0543 154.3 24.4 5604  94
2025 12 06 10  06 12 03.471   +41 48 38.28  .07617 1.0545 154.3 24.4 5607  94
2025 12 06 11  06 12 09.525   +41 48 41.53  .07641 1.0547 154.4 24.5 5610  94
2025 12 06 12  06 12 15.535   +41 48 44.67  .07665 1.0549 154.4 24.5 5613  94
2025 12 06 13  06 12 21.500   +41 48 47.70  .07689 1.0552 154.4 24.5 5616  94
2025 12 06 14  06 12 27.421   +41 48 50.61  .07712 1.0554 154.4 24.5 5619  94
2025 12 06 15  06 12 33.299   +41 48 53.41  .07736 1.0556 154.4 24.5 5622  94
2025 12 06 16  06 12 39.133   +41 48 56.10  .07760 1.0558 154.4 24.5 5625  94
2025 12 06 17  06 12 44.923   +41 48 58.68  .07784 1.0560 154.5 24.5 5627  94
2025 12 06 18  06 12 50.672   +41 49 01.15  .07807 1.0563 154.5 24.5 5630  94
2025 12 06 19  06 12 56.378   +41 49 03.52  .07831 1.0565 154.5 24.5 5633  94
2025 12 06 20  06 13 02.042   +41 49 05.77  .07855 1.0567 154.5 24.5 5635  94
2025 12 06 21  06 13 07.664   +41 49 07.93  .07879 1.0569 154.5 24.5 5638  94
2025 12 06 22  06 13 13.245   +41 49 09.97  .07903 1.0571 154.5 24.5 5641  94
2025 12 06 23  06 13 18.786   +41 49 11.92  .07926 1.0574 154.5 24.5 5643  94
2025 12 07 00  06 13 24.285   +41 49 13.76  .07950 1.0576 154.6 24.5 5646  94
2025 12 07 01  06 13 29.745   +41 49 15.50  .07974 1.0578 154.6 24.5 5648  94
2025 12 07 02  06 13 35.164   +41 49 17.13  .07998 1.0580 154.6 24.5 5651  94
2025 12 07 03  06 13 40.544   +41 49 18.67  .08022 1.0582 154.6 24.6 5653  94
2025 12 07 04  06 13 45.884   +41 49 20.11  .08046 1.0585 154.6 24.6 5656  94
2025 12 07 05  06 13 51.186   +41 49 21.45  .08069 1.0587 154.6 24.6 5658  94
2025 12 07 06  06 13 56.449   +41 49 22.69  .08093 1.0589 154.7 24.6 5661  94
2025 12 07 07  06 14 01.673   +41 49 23.83  .08117 1.0591 154.7 24.6 5663  94
2025 12 07 08  06 14 06.860   +41 49 24.88  .08141 1.0594 154.7 24.6 5666  94
2025 12 07 09  06 14 12.008   +41 49 25.83  .08165 1.0596 154.7 24.6 5668  94
2025 12 07 10  06 14 17.120   +41 49 26.69  .08189 1.0598 154.7 24.6 5670  94
2025 12 07 11  06 14 22.194   +41 49 27.46  .08213 1.0600 154.7 24.6 5673  94
2025 12 07 12  06 14 27.231   +41 49 28.13  .08236 1.0602 154.8 24.6 5675  94
2025 12 07 13  06 14 32.232   +41 49 28.71  .08260 1.0605 154.8 24.6 5677  94
2025 12 07 14  06 14 37.196   +41 49 29.19  .08284 1.0607 154.8 24.6 5679  94
2025 12 07 15  06 14 42.125   +41 49 29.59  .08308 1.0609 154.8 24.6 5682  94
2025 12 07 16  06 14 47.018   +41 49 29.90  .08332 1.0611 154.8 24.6 5684  94
2025 12 07 17  06 14 51.875   +41 49 30.12  .08356 1.0614 154.8 24.6 5686  94
2025 12 07 18  06 14 56.697   +41 49 30.24  .08380 1.0616 154.9 24.6 5688  94
2025 12 07 19  06 15 01.485   +41 49 30.29  .08404 1.0618 154.9 24.7 5690  94
2025 12 07 20  06 15 06.237   +41 49 30.24  .08428 1.0620 154.9 24.7 5692  94
2025 12 07 21  06 15 10.956   +41 49 30.11  .08452 1.0623 154.9 24.7 5695  94
2025 12 07 22  06 15 15.640   +41 49 29.89  .08476 1.0625 154.9 24.7 5697  94
2025 12 07 23  06 15 20.290   +41 49 29.59  .08500 1.0627 154.9 24.7 5699  94